Regional Weather Roundup
Issued by NWS

Home | Current Version | Previous Version | Graphics & Text | Print | Product List | Glossary On
Versions: 1 2 3 4 5 6 7 8 9 10 11 12 13 14 15 16 17 18 19 20 21 22 23 24 25 26 27 28 29 30 31 32 33 34 35 36 37 38 39 40 41 42 43 44 45 46 47 48 49 50
000
ASUS43 KLOT 101808
RWRIL

ILLINOIS REGIONAL WEATHER ROUNDUP
NATIONAL WEATHER SERVICE CHICAGO/ROMEOVILLE IL
1200 PM CST SUN DEC 10 2017

NOTE: "FAIR" INDICATES FEW OR NO CLOUDS BELOW 12,000 FEET WITH NO
SIGNIFICANT WEATHER AND/OR OBSTRUCTIONS TO VISIBILITY.

* THESE STATIONS ARE NOT UNDER NWS QUALITY CONTROL. THEY ALSO MAY NOT
  REPORT WEATHER SUCH AS PRECIPITATION OR FOG.

ILZ001-002-007-009-015-016-024-101900-
NORTHWEST ILLINOIS

CITY           SKY/WX    TMP DP  RH WIND       PRES   REMARKS
MOLINE         SUNNY     38  24  57 NW20      29.93F WCI  28
6HR MIN TEMP:  24; 6HR MAX TEMP:  38;

STERLING*      SUNNY     35  21  56 NW12      29.91F WCI  27
SAVANNA*       SUNNY     33  21  61 W9        29.93R WCI  25
$$

ILZ003-004-008-010-011-017-018-101900-
NORTH CENTRAL ILLINOIS

CITY           SKY/WX    TMP DP  RH WIND       PRES   REMARKS
ROCKFORD       PTSUNNY   32  20  61 NW12      29.92S WCI  23
6HR MIN TEMP:  20; 6HR MAX TEMP:  32;

FREEPORT*      PTSUNNY   31  20  63 NW13      29.92R WCI  22
ROCHELLE*      SUNNY     33  21  61 NW10      29.89S WCI  25
DE KALB*       SUNNY     32  21  62 NW13      29.88S WCI  23
PERU*          SUNNY     34  20  57 NW13G18   29.90F WCI  25
$$

ILZ005-006-012>014-019>023-101900-
NORTHEAST ILLINOIS

CITY           SKY/WX    TMP DP  RH WIND       PRES   REMARKS
CHICAGO-OHARE  PTSUNNY   32  19  58 W10G20    29.87F WCI  24
6HR MIN TEMP:  24; 6HR MAX TEMP:  33;

CHICAGO-MIDWAY PTSUNNY   34  21  59 W12G21    29.88F WCI  25
6HR MIN TEMP:  24; 6HR MAX TEMP:  34;

AURORA         SUNNY     34  21  59 W13       29.88F WCI  25
LANSING*       MOSUNNY   34  24  66 SW16      29.88F WCI  23
WAUKEGAN       CLOUDY    29  19  66 W9        29.87R WCI  20
6HR MIN TEMP:  22; 6HR MAX TEMP:  30;

DUPAGE AIRPORT SUNNY     33  21  61 W12       29.87F WCI  24
6HR MIN TEMP:  22; 6HR MAX TEMP:  33;

KANKAKEE*      SUNNY     37  19  49 W18G26    29.91F WCI  27
WHEELING       CLOUDY    32  21  64 W12       29.89S WCI  23
6HR MIN TEMP:  24; 6HR MAX TEMP:  32;

MORRIS*        SUNNY     35  20  55 W15       29.88F WCI  25
ROMEOVILLE*    SUNNY     34  21  58 W14       29.88F WCI  25
NORTHERLY ISL    N/A     32  19  59 W10         N/A  WCI  24
$$

LMZ740>746-101900-
SOUTHERN LAKE MICHIGAN

STATION/POSITION SKY/WX   TEMP    WIND        PRES    VSBY  WAVE
                          AIR SEA DIR/SP/G                  HT/PER
                          (F)     (DEG/KT/KT) (MB)    (MI)  (FT/S)
HARRISON CRIB              31     260/ 15/ 18   N/A
BURNHAM HARBOR             33     300/  6/ 15   N/A
CALUMET HARBOR             33     230/  9/ 14 1011.2F
BURNS HARBOR               33     240/ 16/ 21 1012.5F
MICHIGAN CITY              30     200/ 13/ 15   N/A
$$

ILZ025>027-034>036-040-047-049-050-058-095>099-101900-
WEST-CENTRAL ILLINOIS

CITY           SKY/WX    TMP DP  RH WIND       PRES   REMARKS
QUINCY         SUNNY     41  25  53 W16G23    29.99R
GALESBURG*     SUNNY     38  26  62 NW15      29.94F WCI  29
MACOMB*        SUNNY     39  25  56 W17       29.98S WCI  30
JACKSONVILLE*  MOSUNNY   39  23  52 W14       29.96F WCI  31
PITTSFIELD*    MOSUNNY   42  26  52 W13       29.99S
$$

ILZ028>032-037-038-041>044-048-051>054-059>061-101900-
CENTRAL ILLINOIS

CITY           SKY/WX    TMP DP  RH WIND       PRES   REMARKS
PONTIAC        SUNNY     36  21  55 W17       29.92F WCI  25
BLOOMINGTON    MOSUNNY   36  20  52 W14G24    29.93R WCI  27
DECATUR        CLOUDY    37  21  52 SW20      29.93F WCI  27
PEORIA         SUNNY     38  22  52 W10G22    29.94S WCI  31
6HR MIN TEMP:  24; 6HR MAX TEMP:  38;

LACON*         SUNNY     36  22  55 W9        29.91F WCI  29
LINCOLN*       MOSUNNY   38  23  54 W8        29.94S WCI  32
SPRINGFIELD    MOSUNNY   42  24  49 W16       29.96F
6HR MIN TEMP:  23; 6HR MAX TEMP:  42;

TAYLORVILLE    MOSUNNY   40  22  48 W17G24    29.96F
6HR MIN TEMP:  22; 6HR MAX TEMP:  41;

$$

ILZ033-039-045-046-055>057-062-063-101900-
EAST-CENTRAL ILLINOIS

CITY           SKY/WX    TMP DP  RH WIND       PRES   REMARKS
CHAMPAIGN      PTSUNNY   38  21  50 SW21G30   29.93F WCI  28
DANVILLE*      PTSUNNY   35  20  55 SW17G24   29.90F WCI  25
RANTOUL*       MOSUNNY   39  23  52 W16G25    29.92F WCI  30
MATTOON        MOSUNNY   37  23  56 SW18G28   29.95F WCI  27
PARIS*         PTSUNNY   36  22  58 S20       29.97F WCI  25
$$

ILZ079-100>102-101900-
SOUTHWEST ILLINOIS

CITY           SKY/WX    TMP DP  RH WIND       PRES   REMARKS
ALTON          PTSUNNY   41  25  52 W14       30.00F
BELLEVILLE     MOSUNNY   47  22  37 W12G20    30.00F
CAHOKIA*       SUNNY     46  21  37 W9G18     30.02F
$$

ILZ064>066-069>071-074>076-080>082-084>086-088>090-092>094-101900-
SOUTH-CENTRAL ILLINOIS

CITY           SKY/WX    TMP DP  RH WIND       PRES   REMARKS
CARBONDALE     SUNNY     45  23  42 SW16G26   30.07F
6HR MIN TEMP:  18; 6HR MAX TEMP:  45;

CAIRO*         SUNNY     45  27  50 S12G17    30.13F
EFFINGHAM*     CLOUDY    40  23  51 SW15G22   30.01F
MARION         MOSUNNY   46  23  39 S12       30.07F
MT. VERNON     MOSUNNY   43  24  47 SW18      30.03F
CENTRALIA*     SUNNY     44  25  48 SW16G24   30.01F
SALEM*         MOSUNNY   43  23  44 SW20G25   30.01F
METROPOLIS*    SUNNY     45  24  44 SW16G23   30.13F
$$

ILZ067-068-072-073-078-083-087-091-101900-
SOUTHEAST ILLINOIS

CITY           SKY/WX    TMP DP  RH WIND       PRES   REMARKS
LAWRENCEVILLE  PTSUNNY   38  22  52 S21G28    30.04F WCI  28
FLORA*         PTSUNNY   40  24  52 SW17G23   30.02F
FAIRFIELD*     PTSUNNY   40  23  49 SW12G18   30.04F
HARRISBURG*    SUNNY     43  25  48 SW15G23   30.07F
ROBINSON*      CLOUDY    36  22  56 S17       30.02F WCI  26
CARMI*         MOSUNNY   42  24  49 S21G28    30.05F
$$

ABBREVIATIONS USED IN REMARKS
   TC - TEMPERATURE IN CELSIUS
  WCI - WIND CHILL INDEX
   HX - HEAT INDEX
  VSB - VISIBILITY
$$





USA.gov is the U.S. government's official web portal to all federal, state and local government web resources and services.